Weather History for KAXN - February, 2013

Change the Weather History Date:

Wednesday, February 27, 2013

  Actual Average Record
Temperature  
Mean Temperature 22 °F -  
Max Temperature 30 °F 30 °F 46 °F (1983)
Min Temperature 14 °F 14 °F -26 °F (1962)
Degree Days  
Heating Degree Days 43    
Moisture  
Dew Point 14 °F    
Average Humidity 75    
Maximum Humidity 92    
Minimum Humidity 56    
Precipitation  
Precipitation 0.00 in - - ()
Sea Level Pressure  
Sea Level Pressure 30.07 in    
Wind  
Wind Speed 9 mph (NNW)    
Max Wind Speed 16 mph    
Max Gust Speed -    
Visibility 10 miles    
Events      
Averages and records for this station are not official NWS values.
T = Trace of Precipitation, MM = Missing Value Source: NWS Daily Summary

Daily Weather History Graph

Daily Weather History Graph

Search for Another Location

Airport or City:

Trip Planner

Search our weather history database for the weather conditions in past years. The results will help you decide how hot, cold, wet, or windy it might be!

Date:

Astronomy

Feb. 27, 2013 Rise Set
Actual Time 7:03 AM CST 6:05 PM CST
Civil Twilight 6:33 AM CST 6:35 PM CST
Nautical Twilight 5:58 AM CST 7:10 PM CST
Astronomical Twilight 5:24 AM CST 7:44 PM CST
Moon 8:39 PM CST (2/27) 7:30 AM CST (2/27)
Length of Visible Light 12h 02m
Length of Day
11h 02m
Waning Gibbous, 96% of the Moon is Illuminated
Feb 27
Waning Gibbous
Mar 4
Last Quarter
Mar 11
New
Mar 19
First Quarter
Mar 27
Full

Hourly Weather History & Observations

Time (CST) Temp. Windchill Dew Point Humidity Pressure Visibility Wind Dir Wind Speed Gust Speed Precip Events Conditions
12:53 AM 14.0 °F 3.9 °F 12.0 °F 92% 30.04 in 6.0 mi NNW 6.9 mph - N/A   Clear
1:53 AM 15.1 °F 3.3 °F 10.9 °F 84% 30.04 in 7.0 mi NW 9.2 mph - N/A   Clear
2:53 AM 14.0 °F 2.9 °F 10.0 °F 84% 30.04 in 8.0 mi NNW 8.1 mph - N/A   Clear
3:53 AM 17.1 °F 7.6 °F 12.0 °F 81% 30.03 in 10.0 mi NNW 6.9 mph - N/A   Clear
4:53 AM 24.1 °F 13.1 °F 14.0 °F 65% 30.02 in 10.0 mi North 11.5 mph - N/A   Clear
5:53 AM 19.9 °F 11.1 °F 10.9 °F 68% 30.04 in 10.0 mi NNW 6.9 mph - N/A   Clear
6:53 AM 16.0 °F 5.3 °F 9.0 °F 74% 30.06 in 10.0 mi NNW 8.1 mph - N/A   Clear
7:53 AM 19.0 °F 12.3 °F 10.9 °F 71% 30.08 in 10.0 mi NNW 4.6 mph - N/A   Clear
8:53 AM 23.0 °F 13.9 °F 14.0 °F 68% 30.09 in 10.0 mi NNW 8.1 mph - N/A   Clear
9:53 AM 30.0 °F 22.4 °F 16.0 °F 56% 30.08 in 10.0 mi North 8.1 mph - N/A   Clear
12:53 PM 26.1 °F 15.6 °F 15.1 °F 63% 30.06 in 10.0 mi WNW 11.5 mph - N/A   Clear
1:53 PM 24.1 °F 13.7 °F 16.0 °F 71% 30.06 in 10.0 mi WNW 10.4 mph - N/A   Clear
2:53 PM 24.1 °F 12.0 °F 17.1 °F 75% 30.06 in 10.0 mi WNW 13.8 mph - N/A   Clear
3:53 PM 25.0 °F 13.1 °F 18.0 °F 75% 30.06 in 9.0 mi NW 13.8 mph - N/A   Clear
4:53 PM 25.0 °F 12.2 °F 17.1 °F 72% 30.06 in 10.0 mi NW 16.1 mph - N/A   Clear
5:53 PM 21.9 °F 10.4 °F 15.1 °F 75% 30.09 in 10.0 mi NW 11.5 mph - N/A   Clear
6:53 PM 21.0 °F 8.6 °F 15.1 °F 78% 30.12 in 10.0 mi NNW 12.7 mph - N/A   Clear
7:53 PM 19.9 °F 8.6 °F 14.0 °F 78% 30.12 in 10.0 mi NNW 10.4 mph - N/A   Clear
8:53 PM 19.9 °F 9.3 °F 14.0 °F 78% 30.12 in 10.0 mi NNW 9.2 mph - N/A   Clear
9:53 PM 19.0 °F 8.2 °F 14.0 °F 81% 30.14 in 10.0 mi NNW 9.2 mph - N/A   Clear
10:53 PM 19.0 °F 8.2 °F 14.0 °F 81% 30.14 in 9.0 mi North 9.2 mph - N/A   Clear
11:46 PM 21.2 °F 12.6 °F 15.8 °F 80% 30.09 in 10.0 mi North 6.9 mph - N/A   Mostly Cloudy